Back to catalog

INTELSAT 3-F4

AliveCommunicationsGEO
NORAD 3947·PAYLOAD· XX

Launched May 22, 1969 from Cape Canaveral Space Force Station

Loading…

TLE

FreshSource: Space-Track

Epoch: Sep 14, 2026, 12:35 UTC

1 03947U 69045A   26257.52469536 -.00000108  00000-0  00000-0 0  9999
2 03947   3.5088 288.6908 0021968  77.8672 281.8527  0.90044718 66764

Track INTELSAT 3-F4 in real time with AllMySat

Download on the App Store